User: anonymous   Login
Location: Fort Wayne
(41.1310°N, 85.1290°W)
Time: 23:38:59
(UTC-05:00)
Language:

Cosmos 1953 - Orbit

View from above orbital plane
View from above orbital plane
View from above satellite
View from above satellite

Ground track
Ground track

The orbit data is extracted from the following two-line orbital elements,

1 19210U 88050A   16337.38124153  .00000849  00000-0  57674-4 0  9995
2 19210  82.5192 224.1573 0012652 207.1860 152.8706 15.05068106548239
Epoch (UTC): 02 December 2016 09:08:59
Eccentricity: 0.0012652
inclination: 82.5192°
perigee height: 542 km
apogee height: 560 km
right ascension of ascending node: 224.1573°
argument of perigee: 207.1860°
revolutions per day: 15.05068106
mean anomaly at epoch: 152.8706°
orbit number at epoch: 54823

The dashed part of the orbit path shows where the satellite is in the earth's shadow,  

DLR